GW5543 Weather Reports


time (UTC)temp
C
wind
direction
speed
KPH
gust
KPH
rain 1hr
cm
rain 24hr
cm
rain mn
cm
humidity
%
barometer
mb
20260507161604 16 290 4.8 9.7 0.00 0.00 0.00 80 1016.7
20260507160543 16 294 3.2 11.3 0.00 0.00 0.00 81 1016.8
20260507155039 15 285 3.2 9.7 0.00 0.00 0.00 82 1016.9
20260507153053 15 280 3.2 9.7 0.00 0.00 0.00 83 1016.7
20260507151556 15 126 3.2 6.4 0.00 0.00 0.00 84 1016.7
20260507150105 15 207 3.2 6.4 0.00 0.00 0.00 85 1016.7
20260507144556 15 225 1.6 3.2 0.00 0.00 0.00 86 1016.6
20260507143103 14 23 1.6 4.8 0.00 0.00 0.00 87 1016.5
20260507141557 13 33 3.2 6.4 0.00 0.00 0.00 88 1016.5
20260507140059 13 5 4.8 8.0 0.00 0.00 0.00 88 1016.3
20260507134558 12 37 3.2 6.4 0.00 0.00 0.00 89 1016.3
20260507133059 12 23 4.8 6.4 0.00 0.00 0.00 89 1016.3
20260507131617 12 15 3.2 4.8 0.00 0.00 0.00 89 1016.3
20260507130057 12 352 1.6 6.4 0.00 0.00 0.00 89 1016.2
20260507124556 12 5 3.2 4.8 0.00 0.00 0.00 89 1015.9
20260507123337 12 360 1.6 3.2 0.00 0.00 0.00 89 1016.0
20260507121946 12 33 1.6 3.2 0.00 0.00 0.00 88 1015.9
20260507120516 12 27 3.2 4.8 0.00 0.00 0.00 88 1015.9
20260507115030 12 35 1.6 3.2 0.00 0.00 0.00 88 1015.9
20260507113057 12 27 1.6 3.2 0.00 0.00 0.00 88 1015.9
20260507111554 12 16 1.6 6.4 0.00 0.00 0.00 88 1016.0
20260507110107 12 16 1.6 4.8 0.00 0.00 0.00 88 1016.0
20260507104556 12 19 1.6 4.8 0.00 0.00 0.00 88 1016.0
20260507103058 12 12 3.2 6.4 0.00 0.00 0.00 88 1016.1
20260507101558 12 29 4.8 6.4 0.00 0.00 0.00 87 1016.2
20260507100100 12 34 4.8 6.4 0.00 0.00 0.00 87 1016.0
20260507094610 12 14 4.8 6.4 0.00 0.00 0.00 87 1016.3
20260507093101 12 13 4.8 6.4 0.00 0.00 0.00 87 1016.5
20260507091640 13 29 3.2 6.4 0.00 0.00 0.00 87 1016.5
20260507090106 13 26 3.2 8.0 0.00 0.00 0.00 87 1016.7
20260507084559 13 40 3.2 4.8 0.00 0.00 0.00 87 1016.8
20260507083056 13 18 3.2 4.8 0.00 0.00 0.00 87 1016.9
20260507082111 13 55 3.2 4.8 0.00 0.00 0.00 86 1017.2
20260507081912 13 55 3.2 4.8 0.00 0.00 0.00 86 1017.2
20260507080553 14 0 0.0 4.8 0.00 0.00 0.00 87 1017.4
20260507080402 14 0 0.0 4.8 0.00 0.00 0.00 87 1017.4
20260507074556 15 325 3.2 4.8 0.00 0.00 0.00 87 1017.3
20260507073101 15 0 0.0 0.0 0.00 0.00 0.00 86 1017.4
20260507071610 15 0 0.0 0.0 0.00 0.00 0.00 86 1017.4
20260507070116 15 0 0.0 0.0 0.00 0.00 0.00 86 1017.5
20260507064611 14 0 0.0 0.0 0.00 0.00 0.00 85 1017.7
20260507063104 14 0 0.0 0.0 0.00 0.00 0.00 85 1017.8
20260507061613 15 0 0.0 0.0 0.00 0.00 0.00 84 1017.7
20260507060110 15 123 1.6 3.2 0.00 0.00 0.00 82 1017.8
20260507054601 15 123 1.6 4.8 0.00 0.00 0.00 82 1017.7
20260507053057 15 238 1.6 3.2 0.00 0.00 0.00 81 1017.8
20260507051556 15 0 0.0 3.2 0.00 0.00 0.00 81 1017.7
20260507050057 15 242 1.6 4.8 0.00 0.00 0.00 81 1017.5
20260507044557 15 257 3.2 9.7 0.00 0.00 0.00 80 1017.5
20260507043548 15 244 3.2 8.0 0.00 0.00 0.00 80 1017.4
20260507041849 16 235 4.8 11.3 0.00 0.00 0.00 81 1017.3
20260507041716 16 235 4.8 11.3 0.00 0.00 0.00 81 1017.3
20260507040104 16 273 8.0 12.9 0.00 0.00 0.00 81 1017.3
20260507034600 16 242 6.4 11.3 0.00 0.00 0.00 82 1017.2
20260507033055 16 257 6.4 14.5 0.00 0.00 0.00 81 1016.9
20260507031553 16 264 4.8 12.9 0.00 0.00 0.00 80 1016.8
20260507030056 16 263 9.7 14.5 0.00 0.00 0.00 79 1016.7
20260507024600 16 254 8.0 17.7 0.00 0.00 0.00 77 1016.6
20260507023055 17 245 8.0 17.7 0.00 0.00 0.00 74 1016.4
20260507021558 17 254 11.3 16.1 0.00 0.00 0.00 73 1016.4
20260507020057 17 268 12.9 17.7 0.00 0.00 0.00 71 1016.4
20260507014559 17 232 12.9 19.3 0.00 0.00 0.00 70 1016.3
20260507013056 18 211 11.3 17.7 0.00 0.00 0.00 69 1016.2
20260507011557 18 254 9.7 20.9 0.00 0.00 0.00 69 1016.2
20260507010111 18 254 14.5 22.5 0.00 0.00 0.00 68 1016.2
20260507005027 18 285 11.3 22.5 0.00 0.00 0.00 67 1016.2
20260507003101 18 294 11.3 19.3 0.00 0.00 0.00 67 1016.1
20260507001600 18 290 12.9 22.5 0.00 0.00 0.00 67 1015.9
20260507000111 19 279 16.1 24.1 0.00 0.00 0.00 66 1015.9
20260506234616 19 228 11.3 22.5 0.00 0.00 0.00 65 1015.9
20260506233110 19 241 12.9 24.1 0.00 0.00 0.00 66 1015.9
20260506231558 18 241 14.5 25.7 0.00 0.00 0.00 69 1016.0
20260506230057 19 243 12.9 24.1 0.00 0.00 0.00 67 1016.0
20260506224559 18 227 14.5 25.7 0.00 0.00 0.00 68 1016.1
20260506223101 19 275 16.1 25.7 0.00 0.00 0.00 67 1016.2
20260506221600 19 218 17.7 29.0 0.00 0.00 0.00 67 1016.2
20260506220057 19 269 16.1 29.0 0.00 0.00 0.00 66 1016.6
20260506214601 19 248 14.5 20.9 0.00 0.00 0.00 65 1016.6
20260506213056 18 214 12.9 25.7 0.00 0.00 0.00 68 1016.8
20260506212050 19 228 16.1 27.4 0.00 0.00 0.00 67 1016.9
20260506211948 19 228 16.1 27.4 0.00 0.00 0.00 67 1016.9
20260506210455 18 230 17.7 25.7 0.00 0.00 0.00 67 1016.8
20260506204604 19 233 14.5 27.4 0.00 0.00 0.00 65 1016.9
20260506203058 18 225 17.7 24.1 0.00 0.00 0.00 66 1016.9
20260506201554 19 226 14.5 24.1 0.00 0.00 0.00 65 1017.0
20260506200058 19 228 16.1 25.7 0.00 0.00 0.00 64 1017.2
20260506194555 18 236 16.1 27.4 0.00 0.00 0.00 68 1017.1
20260506193053 18 257 14.5 22.5 0.00 0.00 0.00 66 1017.3
20260506191557 19 234 11.3 22.5 0.00 0.00 0.00 65 1017.4
20260506190058 19 268 11.3 20.9 0.00 0.00 0.00 65 1017.5
20260506184556 18 232 14.5 20.9 0.00 0.00 0.00 66 1017.6
20260506183056 19 240 9.7 17.7 0.00 0.00 0.00 63 1017.7
20260506181554 19 311 9.7 17.7 0.00 0.00 0.00 58 1017.8
20260506180058 18 323 9.7 20.9 0.00 0.00 0.00 61 1017.9
20260506174600 18 352 9.7 19.3 0.00 0.00 0.00 62 1018.1
20260506173513 18 291 11.3 16.1 0.00 0.00 0.00 63 1018.1
20260506172000 17 317 8.0 14.5 0.00 0.00 0.00 63 1018.4
20260506170434 17 302 9.7 19.3 0.00 0.00 0.00 65 1018.3
20260506170241 17 302 9.7 19.3 0.00 0.00 0.00 65 1018.3
20260506164555 17 287 8.0 16.1 0.00 0.00 0.00 66 1018.2
20260506163056 16 323 4.8 14.5 0.00 0.00 0.00 68 1018.3